Time,TemperatureF,DewpointF,PressureIn,WindDirection,WindDirectionDegrees,WindSpeedMPH,WindSpeedGustMPH,Humidity,HourlyPrecipIn,Conditions,Clouds,dailyrainin,SoftwareType,DateUTC
2013-05-10 00:00:00,57.0,54.4,30.02,NW,309,0.0,0.0,91,0.00,,---,0.00,VWS V14.01,2013-05-10 04:00:00,
2013-05-10 00:01:00,56.9,54.3,30.02,NW,309,0.0,0.0,91,0.00,,---,0.00,VWS V14.01,2013-05-10 04:01:00,
2013-05-10 00:06:00,57.0,54.4,30.03,NW,309,2.0,2.0,91,0.00,,---,0.00,VWS V14.01,2013-05-10 04:06:00,
2013-05-10 00:11:00,57.3,54.7,30.03,West,263,0.0,5.0,91,0.00,,---,0.00,VWS V14.01,2013-05-10 04:11:00,
2013-05-10 00:16:00,57.8,54.6,30.03,West,263,0.0,5.0,89,0.00,,---,0.00,VWS V14.01,2013-05-10 04:16:00,
2013-05-10 00:21:00,58.2,54.7,30.03,West,263,0.0,5.0,88,0.00,,---,0.00,VWS V14.01,2013-05-10 04:21:00,
2013-05-10 00:26:00,58.4,54.5,30.03,West,263,0.0,5.0,87,0.00,,---,0.00,VWS V14.01,2013-05-10 04:26:00,
2013-05-10 00:30:00,58.5,54.7,30.03,West,263,0.0,5.0,87,0.00,,---,0.00,VWS V14.01,2013-05-10 04:30:00,
2013-05-10 00:31:00,58.5,54.7,30.03,West,263,0.0,0.0,87,0.00,,---,0.00,VWS V14.01,2013-05-10 04:31:00,
2013-05-10 00:36:00,58.4,54.5,30.03,West,263,0.0,0.0,87,0.00,,---,0.00,VWS V14.01,2013-05-10 04:36:00,
2013-05-10 00:41:00,58.1,54.6,30.03,West,263,0.0,0.0,88,0.00,,---,0.00,VWS V14.01,2013-05-10 04:41:00,
2013-05-10 00:46:00,57.7,54.2,30.03,West,263,0.0,0.0,88,0.00,,---,0.00,VWS V14.01,2013-05-10 04:46:00,
2013-05-10 00:51:00,57.3,54.1,30.03,West,263,0.0,0.0,89,0.00,,---,0.00,VWS V14.01,2013-05-10 04:51:00,
2013-05-10 00:56:00,56.8,53.9,30.03,West,263,0.0,0.0,90,0.00,,---,0.00,VWS V14.01,2013-05-10 04:56:00,
2013-05-10 01:00:00,56.7,54.1,30.03,West,263,0.0,0.0,91,0.00,,---,0.00,VWS V14.01,2013-05-10 05:00:00,
2013-05-10 01:01:00,56.5,53.9,30.04,West,263,0.0,0.0,91,0.00,,---,0.00,VWS V14.01,2013-05-10 05:01:00,
2013-05-10 01:06:00,56.2,53.9,30.03,West,263,0.0,2.0,92,0.00,,---,0.00,VWS V14.01,2013-05-10 05:06:00,
2013-05-10 01:11:00,56.0,53.7,30.03,West,263,0.0,2.0,92,0.00,,---,0.00,VWS V14.01,2013-05-10 05:11:00,
2013-05-10 01:16:00,55.8,53.5,30.03,West,263,0.0,2.0,92,0.00,,---,0.00,VWS V14.01,2013-05-10 05:16:00,
2013-05-10 01:21:00,55.7,53.4,30.03,West,263,0.0,2.0,92,0.00,,---,0.00,VWS V14.01,2013-05-10 05:21:00,
2013-05-10 01:26:00,55.4,53.1,30.03,West,263,0.0,2.0,92,0.00,,---,0.00,VWS V14.01,2013-05-10 05:26:00,
2013-05-10 01:30:00,55.3,53.0,30.03,West,263,0.0,2.0,92,0.00,,---,0.00,VWS V14.01,2013-05-10 05:30:00,
2013-05-10 01:31:00,55.3,53.3,30.03,West,263,0.0,0.0,93,0.00,,---,0.00,VWS V14.01,2013-05-10 05:31:00,
2013-05-10 01:36:00,55.1,53.1,30.03,West,263,0.0,0.0,93,0.00,,---,0.00,VWS V14.01,2013-05-10 05:36:00,
2013-05-10 01:41:00,55.0,53.3,30.03,West,263,0.0,0.0,94,0.00,,---,0.00,VWS V14.01,2013-05-10 05:41:00,
2013-05-10 01:46:00,55.1,53.4,30.02,West,263,0.0,0.0,94,0.00,,---,0.00,VWS V14.01,2013-05-10 05:46:00,
2013-05-10 01:51:00,55.2,53.5,30.03,West,263,0.0,0.0,94,0.00,,---,0.00,VWS V14.01,2013-05-10 05:51:00,
2013-05-10 01:56:00,55.2,53.5,30.03,West,263,0.0,1.0,94,0.00,,---,0.00,VWS V14.01,2013-05-10 05:56:00,
2013-05-10 02:00:00,55.2,53.5,30.02,West,263,0.0,1.0,94,0.00,,---,0.00,VWS V14.01,2013-05-10 06:00:00,
2013-05-10 02:01:00,55.2,53.5,30.02,West,263,0.0,0.0,94,0.00,,---,0.00,VWS V14.01,2013-05-10 06:01:00,
2013-05-10 02:06:00,55.0,53.0,30.02,West,263,0.0,0.0,93,0.00,,---,0.00,VWS V14.01,2013-05-10 06:06:00,
2013-05-10 02:11:00,54.8,52.8,30.02,West,263,0.0,0.0,93,0.00,,---,0.00,VWS V14.01,2013-05-10 06:11:00,
2013-05-10 02:16:00,54.6,52.6,30.02,West,263,0.0,0.0,93,0.00,,---,0.00,VWS V14.01,2013-05-10 06:16:00,
2013-05-10 02:21:00,54.4,52.4,30.02,West,263,0.0,0.0,93,0.00,,---,0.00,VWS V14.01,2013-05-10 06:21:00,
2013-05-10 02:26:00,54.1,52.1,30.02,West,263,0.0,0.0,93,0.00,,---,0.00,VWS V14.01,2013-05-10 06:26:00,
2013-05-10 02:30:00,54.0,52.0,30.02,West,263,0.0,0.0,93,0.00,,---,0.00,VWS V14.01,2013-05-10 06:30:00,
2013-05-10 02:31:00,53.9,52.2,30.02,West,263,0.0,0.0,94,0.00,,---,0.00,VWS V14.01,2013-05-10 06:31:00,
2013-05-10 02:36:00,53.8,52.1,30.02,West,263,0.0,0.0,94,0.00,,---,0.00,VWS V14.01,2013-05-10 06:36:00,
2013-05-10 02:41:00,53.7,52.0,30.02,West,263,0.0,0.0,94,0.00,,---,0.00,VWS V14.01,2013-05-10 06:41:00,
2013-05-10 02:46:00,53.6,51.9,30.02,West,263,0.0,0.0,94,0.00,,---,0.00,VWS V14.01,2013-05-10 06:46:00,
2013-05-10 02:51:00,53.5,52.1,30.02,West,263,0.0,0.0,95,0.00,,---,0.00,VWS V14.01,2013-05-10 06:51:00,
2013-05-10 02:56:00,53.5,51.8,30.03,West,263,0.0,0.0,94,0.00,,---,0.00,VWS V14.01,2013-05-10 06:56:00,
2013-05-10 03:00:00,53.3,51.6,30.03,West,263,0.0,0.0,94,0.00,,---,0.00,VWS V14.01,2013-05-10 07:00:00,
2013-05-10 03:01:00,53.2,51.5,30.03,West,263,0.0,0.0,94,0.00,,---,0.00,VWS V14.01,2013-05-10 07:01:00,
2013-05-10 03:06:00,53.3,51.9,30.03,West,263,0.0,0.0,95,0.00,,---,0.00,VWS V14.01,2013-05-10 07:06:00,
2013-05-10 03:11:00,53.3,51.9,30.03,West,263,0.0,0.0,95,0.00,,---,0.00,VWS V14.01,2013-05-10 07:11:00,
2013-05-10 03:16:00,53.2,51.8,30.03,West,263,0.0,0.0,95,0.00,,---,0.00,VWS V14.01,2013-05-10 07:16:00,
2013-05-10 03:21:00,53.2,51.8,30.03,West,263,0.0,3.0,95,0.00,,---,0.00,VWS V14.01,2013-05-10 07:21:00,
2013-05-10 03:26:00,53.2,51.8,30.03,West,263,0.0,3.0,95,0.00,,---,0.00,VWS V14.01,2013-05-10 07:26:00,
2013-05-10 03:30:00,53.2,51.8,30.03,West,263,0.0,3.0,95,0.00,,---,0.00,VWS V14.01,2013-05-10 07:30:00,
2013-05-10 03:31:00,53.2,51.8,30.03,West,263,0.0,0.0,95,0.00,,---,0.00,VWS V14.01,2013-05-10 07:31:00,
2013-05-10 03:36:00,53.2,51.8,30.03,West,263,0.0,2.0,95,0.00,,---,0.00,VWS V14.01,2013-05-10 07:36:00,
2013-05-10 03:41:00,53.3,51.9,30.03,West,263,2.0,2.0,95,0.00,,---,0.00,VWS V14.01,2013-05-10 07:41:00,
2013-05-10 03:46:00,53.2,51.8,30.03,West,263,2.0,3.0,95,0.00,,---,0.00,VWS V14.01,2013-05-10 07:46:00,
2013-05-10 03:51:00,53.2,51.8,30.03,West,263,0.0,3.0,95,0.00,,---,0.00,VWS V14.01,2013-05-10 07:51:00,
2013-05-10 03:56:00,53.1,51.7,30.03,West,263,0.0,3.0,95,0.00,,---,0.00,VWS V14.01,2013-05-10 07:56:00,
2013-05-10 04:00:00,53.1,51.7,30.03,West,263,0.0,3.0,95,0.00,,---,0.00,VWS V14.01,2013-05-10 08:00:00,
2013-05-10 04:01:00,53.1,51.7,30.03,West,263,0.0,0.0,95,0.00,,---,0.00,VWS V14.01,2013-05-10 08:01:00,
2013-05-10 04:06:00,53.1,51.7,30.02,West,263,0.0,0.0,95,0.00,,---,0.00,VWS V14.01,2013-05-10 08:06:00,
2013-05-10 04:11:00,53.0,51.6,30.02,West,263,0.0,0.0,95,0.00,,---,0.00,VWS V14.01,2013-05-10 08:11:00,
2013-05-10 04:16:00,52.9,51.5,30.02,West,263,0.0,3.0,95,0.00,,---,0.00,VWS V14.01,2013-05-10 08:16:00,
2013-05-10 04:21:00,53.0,51.6,30.02,West,263,0.0,3.0,95,0.00,,---,0.00,VWS V14.01,2013-05-10 08:21:00,
2013-05-10 04:26:00,53.1,51.7,30.02,West,263,0.0,3.0,95,0.00,,---,0.00,VWS V14.01,2013-05-10 08:26:00,
2013-05-10 04:30:00,53.1,51.7,30.02,West,263,0.0,3.0,95,0.00,,---,0.00,VWS V14.01,2013-05-10 08:30:00,
2013-05-10 04:31:00,53.1,51.7,30.02,West,263,0.0,0.0,95,0.00,,---,0.00,VWS V14.01,2013-05-10 08:31:00,
2013-05-10 04:36:00,53.1,51.7,30.02,West,263,2.0,2.0,95,0.00,,---,0.00,VWS V14.01,2013-05-10 08:36:00,
2013-05-10 04:41:00,53.0,51.6,30.02,West,263,1.0,2.0,95,0.00,,---,0.00,VWS V14.01,2013-05-10 08:41:00,
2013-05-10 04:46:00,53.0,51.6,30.01,West,263,0.0,2.0,95,0.00,,---,0.00,VWS V14.01,2013-05-10 08:46:00,
2013-05-10 04:51:00,53.1,51.7,30.01,West,263,0.0,2.0,95,0.00,,---,0.00,VWS V14.01,2013-05-10 08:51:00,
2013-05-10 04:56:00,53.2,51.8,30.01,West,263,0.0,2.0,95,0.00,,---,0.00,VWS V14.01,2013-05-10 08:56:00,
2013-05-10 05:00:00,53.3,51.9,30.01,West,263,0.0,2.0,95,0.00,,---,0.00,VWS V14.01,2013-05-10 09:00:00,
2013-05-10 05:01:00,53.3,51.9,30.01,West,263,0.0,0.0,95,0.00,,---,0.00,VWS V14.01,2013-05-10 09:01:00,
2013-05-10 05:06:00,53.4,52.0,30.01,West,263,0.0,0.0,95,0.00,,---,0.00,VWS V14.01,2013-05-10 09:06:00,
2013-05-10 05:11:00,53.3,51.9,30.02,West,263,0.0,0.0,95,0.00,,---,0.00,VWS V14.01,2013-05-10 09:11:00,
2013-05-10 05:16:00,53.1,51.7,30.01,West,263,0.0,2.0,95,0.00,,---,0.00,VWS V14.01,2013-05-10 09:16:00,
2013-05-10 05:21:00,53.0,51.6,30.01,West,263,0.0,2.0,95,0.00,,---,0.00,VWS V14.01,2013-05-10 09:21:00,
2013-05-10 05:26:00,53.2,51.8,30.01,West,263,0.0,2.0,95,0.00,,---,0.00,VWS V14.01,2013-05-10 09:26:00,
2013-05-10 05:30:00,53.3,51.9,30.01,West,263,0.0,2.0,95,0.00,,---,0.00,VWS V14.01,2013-05-10 09:30:00,
2013-05-10 05:31:00,53.3,51.9,30.01,West,263,0.0,0.0,95,0.00,,---,0.00,VWS V14.01,2013-05-10 09:31:00,
2013-05-10 05:36:00,53.2,51.8,30.01,West,263,0.0,1.0,95,0.00,,---,0.00,VWS V14.01,2013-05-10 09:36:00,
2013-05-10 05:41:00,53.1,51.7,30.00,West,263,0.0,1.0,95,0.00,,---,0.00,VWS V14.01,2013-05-10 09:41:00,
2013-05-10 05:46:00,53.1,51.7,30.00,West,263,0.0,1.0,95,0.00,,---,0.00,VWS V14.01,2013-05-10 09:46:00,
2013-05-10 05:51:00,52.9,51.5,30.00,West,263,0.0,1.0,95,0.00,,---,0.00,VWS V14.01,2013-05-10 09:51:00,
2013-05-10 05:56:00,52.7,51.3,30.00,West,263,0.0,1.0,95,0.00,,---,0.00,VWS V14.01,2013-05-10 09:56:00,
2013-05-10 06:00:00,52.7,51.3,30.00,West,263,0.0,1.0,95,0.00,,---,0.00,VWS V14.01,2013-05-10 10:00:00,
2013-05-10 06:01:00,52.7,51.3,30.00,West,263,0.0,0.0,95,0.00,,---,0.00,VWS V14.01,2013-05-10 10:01:00,
2013-05-10 06:06:00,52.7,51.3,30.01,West,263,0.0,0.0,95,0.00,,---,0.00,VWS V14.01,2013-05-10 10:06:00,
2013-05-10 06:11:00,52.6,51.2,30.01,West,263,0.0,0.0,95,0.00,,---,0.00,VWS V14.01,2013-05-10 10:11:00,
2013-05-10 06:16:00,52.6,51.2,30.01,West,263,0.0,0.0,95,0.00,,---,0.00,VWS V14.01,2013-05-10 10:16:00,
2013-05-10 06:21:00,52.6,51.2,30.01,West,263,0.0,0.0,95,0.00,,---,0.00,VWS V14.01,2013-05-10 10:21:00,
2013-05-10 06:26:00,52.4,51.0,30.02,West,263,0.0,0.0,95,0.00,,---,0.00,VWS V14.01,2013-05-10 10:26:00,
2013-05-10 06:30:00,52.4,51.0,30.02,West,263,0.0,0.0,95,0.00,,---,0.00,VWS V14.01,2013-05-10 10:30:00,
2013-05-10 06:31:00,52.3,50.9,30.02,West,263,0.0,0.0,95,0.00,,---,0.00,VWS V14.01,2013-05-10 10:31:00,
2013-05-10 06:36:00,52.3,50.9,30.02,West,263,0.0,0.0,95,0.00,,---,0.00,VWS V14.01,2013-05-10 10:36:00,
2013-05-10 06:41:00,52.3,50.9,30.02,West,263,0.0,0.0,95,0.00,,---,0.00,VWS V14.01,2013-05-10 10:41:00,
2013-05-10 06:46:00,52.5,51.4,30.02,West,263,0.0,0.0,96,0.00,,---,0.00,VWS V14.01,2013-05-10 10:46:00,
2013-05-10 06:51:00,52.6,51.2,30.02,West,263,0.0,0.0,95,0.00,,---,0.00,VWS V14.01,2013-05-10 10:51:00,
2013-05-10 06:56:00,52.7,51.6,30.02,West,263,0.0,0.0,96,0.00,,---,0.00,VWS V14.01,2013-05-10 10:56:00,
2013-05-10 07:00:00,52.6,51.2,30.02,West,263,0.0,0.0,95,0.00,,---,0.00,VWS V14.01,2013-05-10 11:00:00,
2013-05-10 07:01:00,52.6,51.2,30.02,West,263,0.0,0.0,95,0.00,,---,0.00,VWS V14.01,2013-05-10 11:01:00,
2013-05-10 07:06:00,52.5,51.1,30.02,West,263,0.0,0.0,95,0.00,,---,0.00,VWS V14.01,2013-05-10 11:06:00,
2013-05-10 07:11:00,52.6,51.2,30.02,West,263,0.0,0.0,95,0.00,,---,0.00,VWS V14.01,2013-05-10 11:11:00,
2013-05-10 07:16:00,52.9,51.8,30.02,West,263,0.0,0.0,96,0.00,,---,0.00,VWS V14.01,2013-05-10 11:16:00,
2013-05-10 07:21:00,53.0,51.9,30.02,West,263,0.0,0.0,96,0.00,,---,0.00,VWS V14.01,2013-05-10 11:21:00,
2013-05-10 07:26:00,53.1,51.7,30.02,West,263,0.0,0.0,95,0.00,,---,0.00,VWS V14.01,2013-05-10 11:26:00,
2013-05-10 07:30:00,53.2,52.1,30.02,West,263,0.0,0.0,96,0.00,,---,0.00,VWS V14.01,2013-05-10 11:30:00,
2013-05-10 07:31:00,53.3,52.2,30.02,West,263,0.0,0.0,96,0.00,,---,0.00,VWS V14.01,2013-05-10 11:31:00,
2013-05-10 07:36:00,53.5,52.4,30.02,West,263,0.0,0.0,96,0.00,,---,0.00,VWS V14.01,2013-05-10 11:36:00,
2013-05-10 07:41:00,53.6,52.5,30.02,West,263,0.0,0.0,96,0.00,,---,0.00,VWS V14.01,2013-05-10 11:41:00,
2013-05-10 07:46:00,53.9,52.8,30.02,West,263,0.0,4.0,96,0.00,,---,0.00,VWS V14.01,2013-05-10 11:46:00,
2013-05-10 07:51:00,54.2,53.1,30.02,West,263,0.0,4.0,96,0.00,,---,0.00,VWS V14.01,2013-05-10 11:51:00,
2013-05-10 07:56:00,54.5,53.4,30.02,West,263,0.0,4.0,96,0.00,,---,0.00,VWS V14.01,2013-05-10 11:56:00,
2013-05-10 08:00:00,54.7,53.6,30.02,West,263,0.0,4.0,96,0.00,,---,0.00,VWS V14.01,2013-05-10 12:00:00,
2013-05-10 08:01:00,55.0,53.9,30.02,West,263,0.0,0.0,96,0.00,,---,0.00,VWS V14.01,2013-05-10 12:01:00,
2013-05-10 08:06:00,55.7,54.9,30.02,West,263,0.0,0.0,97,0.00,,---,0.00,VWS V14.01,2013-05-10 12:06:00,
2013-05-10 08:11:00,56.4,55.6,30.02,West,263,0.0,0.0,97,0.00,,---,0.00,VWS V14.01,2013-05-10 12:11:00,
2013-05-10 08:16:00,57.3,56.5,30.02,NW,306,0.0,0.0,97,0.00,,---,0.00,VWS V14.01,2013-05-10 12:16:00,
2013-05-10 08:21:00,58.1,57.3,30.02,NW,306,0.0,0.0,97,0.00,,---,0.00,VWS V14.01,2013-05-10 12:21:00,
2013-05-10 08:26:00,59.0,58.2,30.02,NW,306,0.0,0.0,97,0.00,,---,0.00,VWS V14.01,2013-05-10 12:26:00,
2013-05-10 08:30:00,59.7,58.8,30.01,NW,306,0.0,0.0,97,0.00,,---,0.00,VWS V14.01,2013-05-10 12:30:00,
2013-05-10 08:31:00,60.1,59.2,30.01,NW,306,0.0,0.0,97,0.00,,---,0.00,VWS V14.01,2013-05-10 12:31:00,
2013-05-10 08:36:00,61.1,60.0,30.02,NW,306,0.0,0.0,96,0.00,,---,0.00,VWS V14.01,2013-05-10 12:36:00,
2013-05-10 08:41:00,62.0,59.7,30.02,NW,306,0.0,0.0,92,0.00,,---,0.00,VWS V14.01,2013-05-10 12:41:00,
2013-05-10 08:46:00,63.1,59.5,30.01,NW,306,0.0,0.0,88,0.00,,---,0.00,VWS V14.01,2013-05-10 12:46:00,
2013-05-10 08:51:00,63.9,59.3,30.01,South,180,2.0,3.0,85,0.00,,---,0.00,VWS V14.01,2013-05-10 12:51:00,
2013-05-10 08:56:00,64.8,59.9,30.01,South,180,0.0,3.0,84,0.00,,---,0.00,VWS V14.01,2013-05-10 12:56:00,
2013-05-10 09:00:00,65.5,61.2,30.01,South,180,0.0,3.0,86,0.00,,---,0.00,VWS V14.01,2013-05-10 13:00:00,
2013-05-10 09:01:00,65.9,61.9,30.02,South,180,0.0,0.0,87,0.00,,---,0.00,VWS V14.01,2013-05-10 13:01:00,
2013-05-10 09:06:00,66.9,61.6,30.01,South,180,0.0,0.0,83,0.00,,---,0.00,VWS V14.01,2013-05-10 13:06:00,
2013-05-10 09:11:00,67.7,62.4,30.01,South,180,0.0,0.0,83,0.00,,---,0.00,VWS V14.01,2013-05-10 13:11:00,
2013-05-10 09:16:00,68.3,61.5,30.01,South,180,0.0,0.0,79,0.00,,---,0.00,VWS V14.01,2013-05-10 13:16:00,
2013-05-10 09:20:00,68.9,60.3,30.01,South,180,0.0,5.0,74,0.00,,---,0.00,VWS V14.01,2013-05-10 13:20:00,
2013-05-10 09:25:00,69.5,60.9,30.01,SSW,200,0.0,5.0,74,0.00,,---,0.00,VWS V14.01,2013-05-10 13:25:00,
2013-05-10 09:30:00,70.0,62.8,30.01,SSW,199,0.0,0.0,78,0.00,,---,0.00,VWS V14.01,2013-05-10 13:30:00,
2013-05-10 09:35:00,70.7,62.0,30.01,SSW,198,0.0,1.0,74,0.00,,---,0.00,VWS V14.01,2013-05-10 13:35:00,
2013-05-10 09:40:00,70.9,62.2,30.01,SSW,192,0.0,1.0,74,0.00,,---,0.00,VWS V14.01,2013-05-10 13:40:00,
2013-05-10 09:45:00,70.9,62.2,30.01,SSW,192,0.0,1.0,74,0.00,,---,0.00,VWS V14.01,2013-05-10 13:45:00,
2013-05-10 09:50:00,71.0,63.1,30.01,SSW,192,0.0,1.0,76,0.00,,---,0.00,VWS V14.01,2013-05-10 13:50:00,
2013-05-10 09:55:00,71.3,62.2,30.01,SSW,192,0.0,1.0,73,0.00,,---,0.00,VWS V14.01,2013-05-10 13:55:00,
2013-05-10 10:00:00,71.7,63.0,30.00,SSE,167,0.0,0.0,74,0.00,,---,0.00,VWS V14.01,2013-05-10 14:00:00,
2013-05-10 10:05:00,72.1,61.4,30.00,SSE,167,0.0,1.0,69,0.00,,---,0.00,VWS V14.01,2013-05-10 14:05:00,
2013-05-10 10:10:00,72.6,63.1,30.00,SSE,160,0.0,2.0,72,0.00,,---,0.00,VWS V14.01,2013-05-10 14:10:00,
2013-05-10 10:15:00,73.1,63.9,30.00,SSE,158,0.0,2.0,73,0.00,,---,0.00,VWS V14.01,2013-05-10 14:15:00,
2013-05-10 10:20:00,73.3,63.3,30.00,SSE,158,1.0,2.0,71,0.00,,---,0.00,VWS V14.01,2013-05-10 14:20:00,
2013-05-10 10:25:00,73.6,63.6,30.00,SSE,158,0.0,2.0,71,0.00,,---,0.00,VWS V14.01,2013-05-10 14:25:00,
2013-05-10 10:30:00,73.8,63.8,30.00,SE,135,1.0,2.0,71,0.00,,---,0.00,VWS V14.01,2013-05-10 14:30:00,
2013-05-10 10:35:00,74.0,64.4,30.00,SE,133,0.0,4.0,72,0.00,,---,0.00,VWS V14.01,2013-05-10 14:35:00,
2013-05-10 10:40:00,74.3,64.3,30.00,SE,133,0.0,4.0,71,0.00,,---,0.00,VWS V14.01,2013-05-10 14:40:00,
2013-05-10 10:45:00,74.5,64.1,30.00,ESE,123,0.0,5.0,70,0.00,,---,0.00,VWS V14.01,2013-05-10 14:45:00,
2013-05-10 10:50:00,74.8,64.0,29.99,East,98,0.0,5.0,69,0.00,,---,0.00,VWS V14.01,2013-05-10 14:50:00,
2013-05-10 10:55:00,74.9,62.8,29.99,SE,136,5.0,5.0,66,0.00,,---,0.00,VWS V14.01,2013-05-10 14:55:00,
2013-05-10 11:00:00,74.8,62.3,29.99,SE,140,2.0,5.0,65,0.00,,---,0.00,VWS V14.01,2013-05-10 15:00:00,
2013-05-10 11:05:00,74.9,63.6,29.99,SE,142,0.0,5.0,68,0.00,,---,0.00,VWS V14.01,2013-05-10 15:05:00,
2013-05-10 11:10:00,75.3,63.6,29.99,SE,131,0.0,5.0,67,0.00,,---,0.00,VWS V14.01,2013-05-10 15:10:00,
2013-05-10 11:15:00,75.6,64.3,29.99,SSW,200,4.0,5.0,68,0.00,,---,0.00,VWS V14.01,2013-05-10 15:15:00,
2013-05-10 11:20:00,76.0,61.1,29.99,SSW,202,0.0,5.0,60,0.00,,---,0.00,VWS V14.01,2013-05-10 15:20:00,
2013-05-10 11:25:00,76.4,61.0,29.99,South,191,4.0,5.0,59,0.00,,---,0.00,VWS V14.01,2013-05-10 15:25:00,
2013-05-10 11:30:00,76.7,62.7,29.99,SE,140,0.0,6.0,62,0.00,,---,0.00,VWS V14.01,2013-05-10 15:30:00,
2013-05-10 11:35:00,76.9,60.5,29.99,South,178,4.0,6.0,57,0.00,,---,0.00,VWS V14.01,2013-05-10 15:35:00,
2013-05-10 11:40:00,77.2,60.3,29.99,West,279,3.0,6.0,56,0.00,,---,0.00,VWS V14.01,2013-05-10 15:40:00,
2013-05-10 11:45:00,77.4,63.8,29.99,NW,313,0.0,6.0,63,0.00,,---,0.00,VWS V14.01,2013-05-10 15:45:00,
2013-05-10 11:50:00,77.6,62.2,29.98,NW,313,0.0,6.0,59,0.00,,---,0.00,VWS V14.01,2013-05-10 15:50:00,
2013-05-10 11:55:00,77.9,63.4,29.98,NW,313,0.0,6.0,61,0.00,,---,0.00,VWS V14.01,2013-05-10 15:55:00,
2013-05-10 12:00:00,78.0,60.0,29.98,NW,313,0.0,1.0,54,0.00,,---,0.00,VWS V14.01,2013-05-10 16:00:00,
2013-05-10 12:05:00,78.1,60.6,29.98,NW,310,0.0,3.0,55,0.00,,---,0.00,VWS V14.01,2013-05-10 16:05:00,
2013-05-10 12:10:00,78.4,60.9,29.98,North,355,0.0,4.0,55,0.00,,---,0.00,VWS V14.01,2013-05-10 16:10:00,
2013-05-10 12:15:00,78.4,61.4,29.98,SSE,161,0.0,6.0,56,0.00,,---,0.00,VWS V14.01,2013-05-10 16:15:00,
2013-05-10 12:20:00,78.7,63.2,29.98,East,98,4.0,6.0,59,0.00,,---,0.00,VWS V14.01,2013-05-10 16:20:00,
2013-05-10 12:25:00,79.2,61.1,29.98,ESE,112,0.0,6.0,54,0.00,,---,0.00,VWS V14.01,2013-05-10 16:25:00,
2013-05-10 12:30:00,79.2,61.1,29.98,East,96,5.0,5.0,54,0.00,,---,0.00,VWS V14.01,2013-05-10 16:30:00,
2013-05-10 12:35:00,79.0,61.0,29.98,ESE,111,0.0,7.0,54,0.00,,---,0.00,VWS V14.01,2013-05-10 16:35:00,
2013-05-10 12:40:00,79.0,62.5,29.97,SW,232,0.0,7.0,57,0.00,,---,0.00,VWS V14.01,2013-05-10 16:40:00,
2013-05-10 12:45:00,79.3,60.7,29.97,West,273,1.0,7.0,53,0.00,,---,0.00,VWS V14.01,2013-05-10 16:45:00,
2013-05-10 12:50:00,79.6,59.9,29.97,SSW,211,3.0,7.0,51,0.00,,---,0.00,VWS V14.01,2013-05-10 16:50:00,
2013-05-10 12:55:00,79.7,59.4,29.97,SSW,198,4.0,9.0,50,0.00,,---,0.00,VWS V14.01,2013-05-10 16:55:00,
2013-05-10 13:00:00,79.8,60.1,29.97,SW,228,0.0,7.0,51,0.00,,---,0.00,VWS V14.01,2013-05-10 17:00:00,
2013-05-10 13:05:00,80.2,60.5,29.97,South,189,6.0,13.0,51,0.00,,---,0.00,VWS V14.01,2013-05-10 17:05:00,
2013-05-10 13:10:00,80.5,61.3,29.97,SW,234,2.0,13.0,52,0.00,,---,0.00,VWS V14.01,2013-05-10 17:10:00,
2013-05-10 13:15:00,80.7,59.8,29.96,SSW,209,0.0,13.0,49,0.00,,---,0.00,VWS V14.01,2013-05-10 17:15:00,
2013-05-10 13:20:00,80.9,59.4,29.96,SW,225,0.0,13.0,48,0.00,,---,0.00,VWS V14.01,2013-05-10 17:20:00,
2013-05-10 13:25:00,80.9,59.4,29.95,SSE,160,5.0,13.0,48,0.00,,---,0.00,VWS V14.01,2013-05-10 17:25:00,
2013-05-10 13:30:00,80.8,59.3,29.95,West,265,0.0,2.0,48,0.00,,---,0.00,VWS V14.01,2013-05-10 17:30:00,
2013-05-10 13:35:00,80.8,60.4,29.95,SW,225,0.0,10.0,50,0.00,,---,0.00,VWS V14.01,2013-05-10 17:35:00,
2013-05-10 13:40:00,81.0,60.6,29.95,SSW,196,9.0,10.0,50,0.00,,---,0.00,VWS V14.01,2013-05-10 17:40:00,
2013-05-10 13:45:00,81.3,59.8,29.95,WSW,252,3.0,10.0,48,0.00,,---,0.00,VWS V14.01,2013-05-10 17:45:00,
2013-05-10 13:50:00,81.4,59.3,29.94,WSW,256,0.0,10.0,47,0.00,,---,0.00,VWS V14.01,2013-05-10 17:50:00,
2013-05-10 13:55:00,81.5,60.5,29.94,SSW,192,1.0,10.0,49,0.00,,---,0.00,VWS V14.01,2013-05-10 17:55:00,
2013-05-10 14:00:00,81.7,58.9,29.95,SSE,154,1.0,8.0,46,0.00,,---,0.00,VWS V14.01,2013-05-10 18:00:00,
2013-05-10 14:05:00,81.7,58.9,29.94,SW,214,0.0,8.0,46,0.00,,---,0.00,VWS V14.01,2013-05-10 18:05:00,
2013-05-10 14:10:00,81.7,60.7,29.94,SSW,211,4.0,11.0,49,0.00,,---,0.00,VWS V14.01,2013-05-10 18:10:00,
2013-05-10 14:15:00,81.8,60.8,29.94,SW,217,0.0,13.0,49,0.00,,---,0.00,VWS V14.01,2013-05-10 18:15:00,
2013-05-10 14:20:00,81.6,60.6,29.94,South,183,6.0,13.0,49,0.00,,---,0.00,VWS V14.01,2013-05-10 18:20:00,
2013-05-10 14:25:00,81.4,59.3,29.94,SW,217,3.0,13.0,47,0.00,,---,0.00,VWS V14.01,2013-05-10 18:25:00,
2013-05-10 14:30:00,81.5,59.3,29.93,SSW,194,7.0,8.0,47,0.00,,---,0.00,VWS V14.01,2013-05-10 18:30:00,
2013-05-10 14:35:00,81.4,58.7,29.93,West,267,2.0,11.0,46,0.00,,---,0.00,VWS V14.01,2013-05-10 18:35:00,
2013-05-10 14:40:00,81.4,59.8,29.93,South,190,3.0,11.0,48,0.00,,---,0.00,VWS V14.01,2013-05-10 18:40:00,
2013-05-10 14:45:00,81.5,58.8,29.93,West,259,4.0,11.0,46,0.00,,---,0.00,VWS V14.01,2013-05-10 18:45:00,
2013-05-10 14:50:00,81.6,61.2,29.92,South,182,3.0,11.0,50,0.00,,---,0.00,VWS V14.01,2013-05-10 18:50:00,
2013-05-10 14:55:00,81.6,60.6,29.92,SSE,160,5.0,13.0,49,0.00,,---,0.00,VWS V14.01,2013-05-10 18:55:00,
2013-05-10 15:00:00,81.4,58.7,29.92,South,171,5.0,9.0,46,0.00,,---,0.00,VWS V14.01,2013-05-10 19:00:00,
2013-05-10 15:05:00,81.3,60.3,29.92,SSW,193,5.0,12.0,49,0.00,,---,0.00,VWS V14.01,2013-05-10 19:05:00,
2013-05-10 15:10:00,81.3,60.9,29.92,South,189,1.0,14.0,50,0.00,,---,0.00,VWS V14.01,2013-05-10 19:10:00,
2013-05-10 15:15:00,81.4,59.8,29.92,SSE,167,5.0,14.0,48,0.00,,---,0.00,VWS V14.01,2013-05-10 19:15:00,
2013-05-10 15:20:00,81.5,60.5,29.92,WSW,246,2.0,14.0,49,0.00,,---,0.00,VWS V14.01,2013-05-10 19:20:00,
2013-05-10 15:25:00,81.5,59.9,29.92,SSW,196,3.0,16.0,48,0.00,,---,0.00,VWS V14.01,2013-05-10 19:25:00,
2013-05-10 15:30:00,81.3,59.2,29.91,WSW,244,3.0,14.0,47,0.00,,---,0.00,VWS V14.01,2013-05-10 19:30:00,
2013-05-10 15:35:00,81.2,58.5,29.91,SSW,195,6.0,14.0,46,0.00,,---,0.00,VWS V14.01,2013-05-10 19:35:00,
2013-05-10 15:40:00,81.1,60.2,29.91,SSW,197,6.0,14.0,49,0.00,,---,0.00,VWS V14.01,2013-05-10 19:40:00,
2013-05-10 15:45:00,81.2,60.2,29.91,South,183,0.0,14.0,49,0.00,,---,0.00,VWS V14.01,2013-05-10 19:45:00,
2013-05-10 15:50:00,81.3,60.9,29.91,South,180,3.0,14.0,50,0.00,,---,0.00,VWS V14.01,2013-05-10 19:50:00,
2013-05-10 15:55:00,81.2,57.9,29.90,South,180,10.0,14.0,45,0.00,,---,0.00,VWS V14.01,2013-05-10 19:55:00,
2013-05-10 16:00:00,80.9,57.6,29.91,South,185,1.0,14.0,45,0.00,,---,0.00,VWS V14.01,2013-05-10 20:00:00,
2013-05-10 16:05:00,80.6,57.9,29.90,SSE,151,7.0,14.0,46,0.00,,---,0.00,VWS V14.01,2013-05-10 20:05:00,
2013-05-10 16:10:00,80.5,57.8,29.90,SSW,197,2.0,14.0,46,0.00,,---,0.00,VWS V14.01,2013-05-10 20:10:00,
2013-05-10 16:15:00,80.5,58.4,29.90,SSW,196,5.0,14.0,47,0.00,,---,0.00,VWS V14.01,2013-05-10 20:15:00,
2013-05-10 16:20:00,80.5,58.4,29.90,SSW,208,6.0,14.0,47,0.00,,---,0.00,VWS V14.01,2013-05-10 20:20:00,
2013-05-10 16:25:00,80.5,59.0,29.90,SE,140,7.0,14.0,48,0.00,,---,0.00,VWS V14.01,2013-05-10 20:25:00,
2013-05-10 16:30:00,80.5,58.4,29.90,SSW,206,7.0,15.0,47,0.00,,---,0.00,VWS V14.01,2013-05-10 20:30:00,
2013-05-10 16:35:00,80.5,58.4,29.90,SSE,167,5.0,20.0,47,0.00,,---,0.00,VWS V14.01,2013-05-10 20:35:00,
2013-05-10 16:40:00,80.4,58.9,29.90,South,190,7.0,20.0,48,0.00,,---,0.00,VWS V14.01,2013-05-10 20:40:00,
2013-05-10 16:45:00,80.6,60.3,29.89,SSW,199,4.0,20.0,50,0.00,,---,0.00,VWS V14.01,2013-05-10 20:45:00,
2013-05-10 16:50:00,80.6,59.1,29.90,WSW,239,9.0,20.0,48,0.00,,---,0.00,VWS V14.01,2013-05-10 20:50:00,
2013-05-10 16:55:00,80.7,58.6,29.90,SSW,199,10.0,20.0,47,0.00,,---,0.00,VWS V14.01,2013-05-10 20:55:00,
2013-05-10 17:00:00,80.6,59.7,29.90,WSW,255,5.0,15.0,49,0.00,,---,0.00,VWS V14.01,2013-05-10 21:00:00,
2013-05-10 17:05:00,80.5,59.0,29.89,SSW,205,6.0,15.0,48,0.00,,---,0.00,VWS V14.01,2013-05-10 21:05:00,
2013-05-10 17:10:00,80.2,59.9,29.89,WSW,243,1.0,15.0,50,0.00,,---,0.00,VWS V14.01,2013-05-10 21:10:00,
2013-05-10 17:15:00,79.9,59.6,29.90,SSW,192,9.0,15.0,50,0.00,,---,0.00,VWS V14.01,2013-05-10 21:15:00,
2013-05-10 17:20:00,79.6,60.4,29.89,SW,220,6.0,15.0,52,0.00,,---,0.00,VWS V14.01,2013-05-10 21:20:00,
2013-05-10 17:25:00,79.4,59.7,29.89,SSW,195,1.0,15.0,51,0.00,,---,0.00,VWS V14.01,2013-05-10 21:25:00,
2013-05-10 17:30:00,79.3,59.6,29.89,SSW,198,5.0,5.0,51,0.00,,---,0.00,VWS V14.01,2013-05-10 21:30:00,
2013-05-10 17:35:00,79.1,59.4,29.89,South,182,1.0,7.0,51,0.00,,---,0.00,VWS V14.01,2013-05-10 21:35:00,
2013-05-10 17:40:00,78.9,59.8,29.89,SSW,206,4.0,12.0,52,0.00,,---,0.00,VWS V14.01,2013-05-10 21:40:00,
2013-05-10 17:45:00,78.7,59.6,29.89,SSW,208,5.0,12.0,52,0.00,,---,0.00,VWS V14.01,2013-05-10 21:45:00,
2013-05-10 17:50:00,78.5,59.4,29.89,SW,217,2.0,12.0,52,0.00,,---,0.00,VWS V14.01,2013-05-10 21:50:00,
2013-05-10 17:55:00,78.3,59.2,29.89,SW,229,2.0,12.0,52,0.00,,---,0.00,VWS V14.01,2013-05-10 21:55:00,
2013-05-10 17:58:00,78.2,58.6,29.89,South,186,7.0,12.0,51,0.00,,---,0.00,VWS V14.01,2013-05-10 21:58:00,
2013-05-10 18:00:00,78.2,58.6,29.89,SW,236,2.0,14.0,51,0.00,,---,0.00,VWS V14.01,2013-05-10 22:00:00,
2013-05-10 18:03:00,78.0,59.0,29.89,SW,217,4.0,14.0,52,0.00,,---,0.00,VWS V14.01,2013-05-10 22:03:00,
2013-05-10 18:08:00,77.8,58.2,29.89,WSW,258,1.0,14.0,51,0.00,,---,0.00,VWS V14.01,2013-05-10 22:08:00,
2013-05-10 18:13:00,77.7,58.7,29.89,SW,229,2.0,14.0,52,0.00,,---,0.00,VWS V14.01,2013-05-10 22:13:00,
2013-05-10 18:18:00,77.6,58.6,29.89,South,176,6.0,14.0,52,0.00,,---,0.00,VWS V14.01,2013-05-10 22:18:00,
2013-05-10 18:23:00,77.5,59.0,29.89,SSW,207,2.0,14.0,53,0.00,,---,0.00,VWS V14.01,2013-05-10 22:23:00,
2013-05-10 18:28:00,77.3,58.8,29.89,WSW,244,2.0,14.0,53,0.00,,---,0.00,VWS V14.01,2013-05-10 22:28:00,
2013-05-10 18:30:00,77.3,58.8,29.89,SSW,198,2.0,14.0,53,0.00,,---,0.00,VWS V14.01,2013-05-10 22:30:00,
2013-05-10 18:33:00,77.2,59.3,29.89,SW,235,1.0,12.0,54,0.00,,---,0.00,VWS V14.01,2013-05-10 22:33:00,
2013-05-10 18:38:00,77.0,59.1,29.89,WSW,239,0.0,12.0,54,0.00,,---,0.00,VWS V14.01,2013-05-10 22:38:00,
2013-05-10 18:43:00,76.9,59.0,29.89,SSW,201,4.0,12.0,54,0.00,,---,0.00,VWS V14.01,2013-05-10 22:43:00,
2013-05-10 18:48:00,76.7,58.8,29.89,WNW,292,5.0,12.0,54,0.00,,---,0.00,VWS V14.01,2013-05-10 22:48:00,
2013-05-10 18:53:00,76.6,59.2,29.89,SW,217,0.0,12.0,55,0.00,,---,0.00,VWS V14.01,2013-05-10 22:53:00,
2013-05-10 18:58:00,76.4,60.1,29.90,WNW,284,4.0,12.0,57,0.00,,---,0.00,VWS V14.01,2013-05-10 22:58:00,
2013-05-10 19:00:00,76.4,60.1,29.90,WNW,283,0.0,12.0,57,0.00,,---,0.00,VWS V14.01,2013-05-10 23:00:00,
2013-05-10 19:03:00,76.2,59.4,29.91,West,277,3.0,8.0,56,0.00,,---,0.00,VWS V14.01,2013-05-10 23:03:00,
2013-05-10 19:08:00,75.7,59.4,29.91,WNW,303,8.0,10.0,57,0.00,,---,0.00,VWS V14.01,2013-05-10 23:08:00,
2013-05-10 19:13:00,74.7,58.5,29.92,WSW,244,15.0,23.0,57,0.00,,---,0.00,VWS V14.01,2013-05-10 23:13:00,
2013-05-10 19:18:00,73.4,56.8,29.92,West,277,8.0,23.0,56,0.00,,---,0.00,VWS V14.01,2013-05-10 23:18:00,
2013-05-10 19:23:00,72.0,56.9,29.92,West,266,5.0,27.0,59,0.00,,---,0.00,VWS V14.01,2013-05-10 23:23:00,
2013-05-10 19:28:00,70.7,58.8,29.94,West,275,4.0,27.0,66,0.00,,---,0.00,VWS V14.01,2013-05-10 23:28:00,
2013-05-10 19:30:00,70.4,58.9,29.94,West,270,4.0,27.0,67,0.01,,---,0.01,VWS V14.01,2013-05-10 23:30:00,
2013-05-10 19:33:00,68.7,59.7,29.92,West,271,5.0,16.0,73,0.10,,---,0.10,VWS V14.01,2013-05-10 23:33:00,
2013-05-10 19:38:00,66.8,59.7,29.91,WNW,286,7.0,16.0,78,0.15,,---,0.15,VWS V14.01,2013-05-10 23:38:00,
2013-05-10 19:43:00,65.4,59.4,29.92,WNW,290,9.0,16.0,81,0.15,,---,0.15,VWS V14.01,2013-05-10 23:43:00,
2013-05-10 19:48:00,64.6,59.7,29.92,WNW,284,0.0,16.0,84,0.15,,---,0.15,VWS V14.01,2013-05-10 23:48:00,
2013-05-10 19:53:00,64.0,59.7,29.92,WNW,284,0.0,16.0,86,0.15,,---,0.15,VWS V14.01,2013-05-10 23:53:00,
2013-05-10 19:58:00,63.6,60.0,29.92,WNW,284,0.0,16.0,88,0.15,,---,0.15,VWS V14.01,2013-05-10 23:58:00,
2013-05-10 20:00:00,63.5,59.9,29.92,WNW,284,0.0,16.0,88,0.15,,---,0.15,VWS V14.01,2013-05-11 00:00:00,
2013-05-10 20:03:00,63.3,60.0,29.92,WNW,284,0.0,0.0,89,0.15,,---,0.15,VWS V14.01,2013-05-11 00:03:00,
2013-05-10 20:08:00,63.1,60.1,29.92,WNW,284,0.0,0.0,90,0.15,,---,0.15,VWS V14.01,2013-05-11 00:08:00,
2013-05-10 20:13:00,62.9,59.9,29.92,WNW,284,0.0,0.0,90,0.15,,---,0.15,VWS V14.01,2013-05-11 00:13:00,
2013-05-10 20:18:00,62.8,60.1,29.92,WNW,284,0.0,0.0,91,0.15,,---,0.15,VWS V14.01,2013-05-11 00:18:00,
2013-05-10 20:23:00,62.6,59.9,29.92,WNW,284,0.0,0.0,91,0.15,,---,0.15,VWS V14.01,2013-05-11 00:23:00,
2013-05-10 20:28:00,62.5,60.5,29.92,WNW,285,0.0,0.0,93,0.15,,---,0.15,VWS V14.01,2013-05-11 00:28:00,
2013-05-10 20:30:00,62.5,60.5,29.92,WNW,284,0.0,0.0,93,0.15,,---,0.15,VWS V14.01,2013-05-11 00:30:00,
2013-05-10 20:33:00,62.4,60.3,29.92,WNW,284,0.0,0.0,93,0.14,,---,0.15,VWS V14.01,2013-05-11 00:33:00,
2013-05-10 20:38:00,62.3,60.2,29.93,WNW,284,1.0,3.0,93,0.14,,---,0.15,VWS V14.01,2013-05-11 00:38:00,
2013-05-10 20:43:00,62.2,60.2,29.93,WNW,286,8.0,9.0,93,0.14,,---,0.15,VWS V14.01,2013-05-11 00:43:00,
2013-05-10 20:48:00,62.3,60.0,29.93,NW,315,2.0,9.0,92,0.14,,---,0.15,VWS V14.01,2013-05-11 00:48:00,
2013-05-10 20:53:00,62.5,60.2,29.92,SW,217,3.0,9.0,92,0.14,,---,0.15,VWS V14.01,2013-05-11 00:53:00,
2013-05-10 20:58:00,62.6,60.2,29.92,SW,217,0.0,9.0,92,0.14,,---,0.15,VWS V14.01,2013-05-11 00:58:00,
2013-05-10 21:00:00,62.6,60.2,29.92,SW,217,0.0,9.0,92,0.14,,---,0.15,VWS V14.01,2013-05-11 01:00:00,
2013-05-10 21:03:00,62.7,60.3,29.92,SW,217,0.0,0.0,92,0.00,,---,0.15,VWS V14.01,2013-05-11 01:03:00,
2013-05-10 21:08:00,62.7,60.3,29.93,SW,217,0.0,0.0,92,0.00,,---,0.15,VWS V14.01,2013-05-11 01:08:00,
2013-05-10 21:13:00,62.7,60.3,29.92,SW,217,0.0,0.0,92,0.00,,---,0.15,VWS V14.01,2013-05-11 01:13:00,
2013-05-10 21:18:00,62.6,60.5,29.93,SW,217,0.0,0.0,93,0.00,,---,0.15,VWS V14.01,2013-05-11 01:18:00,
2013-05-10 21:23:00,62.6,60.5,29.93,SW,217,0.0,0.0,93,0.00,,---,0.15,VWS V14.01,2013-05-11 01:23:00,
2013-05-10 21:28:00,62.5,60.5,29.93,SW,217,0.0,0.0,93,0.00,,---,0.15,VWS V14.01,2013-05-11 01:28:00,
2013-05-10 21:30:00,62.5,60.5,29.93,SW,217,0.0,0.0,93,0.00,,---,0.15,VWS V14.01,2013-05-11 01:30:00,
2013-05-10 21:33:00,62.5,60.5,29.93,SW,217,0.0,0.0,93,0.00,,---,0.15,VWS V14.01,2013-05-11 01:33:00,
2013-05-10 21:38:00,62.4,60.3,29.94,SW,217,0.0,0.0,93,0.00,,---,0.15,VWS V14.01,2013-05-11 01:38:00,
2013-05-10 21:43:00,62.4,60.3,29.96,WSW,255,10.0,18.0,93,0.01,,---,0.16,VWS V14.01,2013-05-11 01:43:00,
2013-05-10 21:48:00,62.7,60.3,29.94,WNW,295,8.0,21.0,92,0.08,,---,0.23,VWS V14.01,2013-05-11 01:48:00,
2013-05-10 21:53:00,62.8,60.5,29.94,WNW,282,0.0,21.0,92,0.08,,---,0.23,VWS V14.01,2013-05-11 01:53:00,
2013-05-10 21:58:00,62.8,60.5,29.93,WNW,282,0.0,21.0,92,0.09,,---,0.24,VWS V14.01,2013-05-11 01:58:00,
2013-05-10 22:00:00,62.7,60.3,29.93,WNW,282,0.0,21.0,92,0.09,,---,0.24,VWS V14.01,2013-05-11 02:00:00,
2013-05-10 22:03:00,62.6,60.5,29.93,WNW,282,0.0,0.0,93,0.09,,---,0.24,VWS V14.01,2013-05-11 02:03:00,
2013-05-10 22:08:00,62.4,60.3,29.93,WNW,282,0.0,0.0,93,0.09,,---,0.24,VWS V14.01,2013-05-11 02:08:00,
2013-05-10 22:13:00,62.3,60.2,29.93,WNW,282,0.0,0.0,93,0.09,,---,0.24,VWS V14.01,2013-05-11 02:13:00,
2013-05-10 22:18:00,62.1,60.4,29.93,WNW,282,0.0,0.0,94,0.09,,---,0.24,VWS V14.01,2013-05-11 02:18:00,
2013-05-10 22:23:00,62.0,60.3,29.93,WNW,282,0.0,0.0,94,0.09,,---,0.24,VWS V14.01,2013-05-11 02:23:00,
2013-05-10 22:28:00,61.8,60.1,29.93,WNW,282,0.0,0.0,94,0.09,,---,0.24,VWS V14.01,2013-05-11 02:28:00,
2013-05-10 22:30:00,61.8,60.1,29.93,WNW,282,0.0,0.0,94,0.09,,---,0.24,VWS V14.01,2013-05-11 02:30:00,
2013-05-10 22:33:00,61.7,59.7,29.93,WNW,282,0.0,2.0,93,0.09,,---,0.24,VWS V14.01,2013-05-11 02:33:00,
2013-05-10 22:38:00,61.6,59.9,29.92,WNW,282,0.0,2.0,94,0.09,,---,0.24,VWS V14.01,2013-05-11 02:38:00,
2013-05-10 22:43:00,61.6,59.9,29.92,WNW,282,0.0,2.0,94,0.09,,---,0.24,VWS V14.01,2013-05-11 02:43:00,
2013-05-10 22:48:00,61.5,59.8,29.92,WNW,282,0.0,2.0,94,0.09,,---,0.24,VWS V14.01,2013-05-11 02:48:00,
2013-05-10 22:53:00,61.6,59.6,29.91,WNW,282,0.0,2.0,93,0.09,,---,0.24,VWS V14.01,2013-05-11 02:53:00,
2013-05-10 22:58:00,61.6,59.6,29.91,WNW,282,0.0,2.0,93,0.09,,---,0.24,VWS V14.01,2013-05-11 02:58:00,
2013-05-10 23:00:00,61.6,59.6,29.91,WNW,282,0.0,2.0,93,0.09,,---,0.24,VWS V14.01,2013-05-11 03:00:00,
2013-05-10 23:03:00,61.6,59.9,29.91,WNW,282,0.0,0.0,94,0.00,,---,0.24,VWS V14.01,2013-05-11 03:03:00,
2013-05-10 23:08:00,61.5,59.8,29.90,WNW,282,0.0,0.0,94,0.00,,---,0.24,VWS V14.01,2013-05-11 03:08:00,
2013-05-10 23:13:00,61.5,59.8,29.90,WNW,282,0.0,0.0,94,0.00,,---,0.24,VWS V14.01,2013-05-11 03:13:00,
2013-05-10 23:18:00,61.4,59.7,29.89,WNW,282,0.0,0.0,94,0.00,,---,0.24,VWS V14.01,2013-05-11 03:18:00,
2013-05-10 23:23:00,61.4,59.7,29.89,WNW,282,0.0,0.0,94,0.00,,---,0.24,VWS V14.01,2013-05-11 03:23:00,
2013-05-10 23:28:00,61.3,59.6,29.89,WNW,282,0.0,0.0,94,0.00,,---,0.24,VWS V14.01,2013-05-11 03:28:00,
2013-05-10 23:30:00,61.3,59.6,29.89,WNW,282,0.0,0.0,94,0.00,,---,0.24,VWS V14.01,2013-05-11 03:30:00,
2013-05-10 23:33:00,61.3,59.6,29.89,WNW,282,0.0,0.0,94,0.00,,---,0.24,VWS V14.01,2013-05-11 03:33:00,
2013-05-10 23:38:00,61.2,59.5,29.89,WNW,282,0.0,0.0,94,0.00,,---,0.24,VWS V14.01,2013-05-11 03:38:00,
2013-05-10 23:43:00,61.1,59.4,29.89,WNW,282,0.0,0.0,94,0.00,,---,0.24,VWS V14.01,2013-05-11 03:43:00,
2013-05-10 23:48:00,61.0,59.6,29.89,WNW,282,0.0,3.0,95,0.00,,---,0.24,VWS V14.01,2013-05-11 03:48:00,
2013-05-10 23:53:00,60.9,59.5,29.90,WNW,282,0.0,3.0,95,0.00,,---,0.24,VWS V14.01,2013-05-11 03:53:00,
2013-05-10 23:58:00,60.9,59.5,29.89,WNW,282,0.0,3.0,95,0.00,,---,0.24,VWS V14.01,2013-05-11 03:58:00,